This is the latest recevied weather packets stored in our database for station/object HOWARD. If no packets are shown the sender has not sent any weather packets the latest 1 day(s).
| Time | Temp. | Humidity | Pressure | Rain* | Wind** | Luminosity | Snow |
|---|---|---|---|---|---|---|---|
| 1778010708 | 7.22° C | 62% | 1011.2 hPa | 0 mm | 3.13 m/s, 308° | - | - |
| 1778010108 | 7.22° C | 62% | 1011.3 hPa | 0 mm | 1.34 m/s, 326° | - | - |
| 1778009509 | 7.78° C | 61% | 1011.1 hPa | 0 mm | 2.24 m/s, 298° | - | - |
| 1778008908 | 7.22° C | 63% | 1011.1 hPa | 0 mm | 0.45 m/s, 279° | - | - |
| 1778008308 | 7.22° C | 62% | 1011.2 hPa | 0 mm | 2.24 m/s, 312° | - | - |
| 1778007710 | 7.22° C | 62% | 1011.1 hPa | 0 mm | 1.34 m/s, 306° | - | - |
| 1778007108 | 7.22° C | 63% | 1011 hPa | 0 mm | 2.24 m/s, 299° | - | - |
| 1778006547 | 7.22° C | 61% | 1011 hPa | 0 mm | 2.68 m/s, 303° | - | - |
| 1778006508 | 7.22° C | 61% | 1011 hPa | 0 mm | 2.68 m/s, 303° | - | - |
| 1778005908 | 8.89° C | 60% | 1010.8 hPa | 0 mm | 2.24 m/s, 316° | - | - |
| 1778005308 | 7.22° C | 60% | 1010.8 hPa | 0 mm | 2.24 m/s, 23° | - | - |
| 1778004709 | 7.22° C | 59% | 1010.8 hPa | 0 mm | 2.24 m/s, 314° | - | - |
| 1778004108 | 7.78° C | 58% | 1010.7 hPa | 0 mm | 1.79 m/s, 352° | - | - |
| 1778003555 | 7.78° C | 57% | 1010.6 hPa | 0 mm | 2.68 m/s, 345° | - | - |
| 1778003509 | 7.78° C | 57% | 1010.6 hPa | 0 mm | 2.68 m/s, 345° | - | - |
| 1778002908 | 7.22° C | 57% | 1010.6 hPa | 0 mm | 1.79 m/s, 356° | - | - |
| 1778002308 | 7.22° C | 57% | 1010.4 hPa | 0 mm | 2.68 m/s, 343° | - | - |
| 1778001708 | 7.78° C | 57% | 1010.5 hPa | 0 mm | 1.79 m/s, 359° | - | - |
| 1778001108 | 7.22° C | 57% | 1010.3 hPa | 0 mm | 2.24 m/s, 344° | - | - |
| 1778000508 | 7.22° C | 55% | 1010.2 hPa | 0 mm | 2.24 m/s, 343° | - | - |
| 1777999908 | 7.22° C | 56% | 1010.2 hPa | 0 mm | 2.24 m/s, 9° | - | - |
| 1777999373 | 7.22° C | 54% | 1010 hPa | 0 mm | 2.68 m/s, 341° | - | - |
| 1777999308 | 7.22° C | 54% | 1010 hPa | 0 mm | 2.68 m/s, 341° | - | - |
| 1777998708 | 6.67° C | 57% | 1010 hPa | 0 mm | 1.79 m/s, 355° | - | - |
| 1777998108 | 6.67° C | 56% | 1009.9 hPa | 0 mm | 2.24 m/s, 340° | - | - |
* Rain latest hour (hover to see other rain measurements)
** Current wind speed in m/s (hover to see current wind gust speed)